Overview Statistics Trail Chart Weather Telemetry Raw packets
 

This is the latest recevied weather packets stored in our database for station/object CW79215. If no packets are shown the sender has not sent any weather packets the latest 10 day(s).

<< 35 36 37 38 39 >>
Time Temp. Humidity Pressure Rain* Wind** Luminosity Snow
1787874622 22.22° C 62% 1021.2 hPa - - - -
1787873722 22.78° C 61% 1021.4 hPa - - - -
1787872822 22.78° C 61% 1021.5 hPa - - - -
1787871921 22.78° C 61% 1021.3 hPa - - - -
1787871021 21.67° C 62% 1021 hPa - - - -
1787870121 21.67° C 62% 1020.7 hPa - - - -
1787869221 21.67° C 61% 1020.5 hPa - - - -
1787868321 21.67° C 60% 1020.4 hPa - - - -
1787867421 22.22° C 59% 1020.2 hPa - - - -
1787866521 22.22° C 59% 1020.1 hPa - - - -
1787865621 22.78° C 59% 1020.2 hPa - - - -
1787864721 22.78° C 58% 1020.3 hPa - - - -
1787863820 22.78° C 58% 1020 hPa - - - -
1787862922 22.78° C 57% 1020.1 hPa - - - -
1787862022 23.33° C 56% 1020.1 hPa - - - -
1787861123 23.33° C 55% 1020.1 hPa - - - -
1787860222 23.33° C 54% 1020 hPa - - - -
1787859322 24.44° C 52% 1020.1 hPa - - - -
1787858422 24.44° C 52% 1020.2 hPa - - - -
1787857521 24.44° C 54% 1019.7 hPa - - - -
1787856621 24.44° C 51% 1020.6 hPa - - - -
1787855721 25° C 51% 1020.5 hPa - - - -
1787854821 25° C 49% 1020.5 hPa - - - -
1787853921 25° C 49% 1020.6 hPa - - - -
1787853021 25.56° C 47% 1020.7 hPa - - - -

* Rain since midnight (hover to see other rain measurements)
** Current wind speed in m/s (hover to see current wind gust speed)